Stations météo

Publicité
Aurillac, France (7549): Température de l'air & dewpoint: 18.02.2019 00:00:00 - 24.02.2019 00:00:00 (CET)Aurillac, France (7549): Température de l'air 5cm: 18.02.2019 00:00:00 - 24.02.2019 00:00:00 (CET)Aurillac, France (7549): Température de l'air -20cm & Température de l'air -100cm: 18.02.2019 00:00:00 - 24.02.2019 00:00:00 (CET)Aurillac, France (7549): Vitesse du vent & gusts: 18.02.2019 00:00:00 - 24.02.2019 00:00:00 (CET)Aurillac, France (7549): Direction du vent: 18.02.2019 00:00:00 - 24.02.2019 00:00:00 (CET)Aurillac, France (7549): reduced air pressure: 18.02.2019 00:00:00 - 24.02.2019 00:00:00 (CET)Aurillac, France (7549): visibility: 18.02.2019 00:00:00 - 24.02.2019 00:00:00 (CET)Aurillac, France (7549): Ensoleillement: 18.02.2019 00:00:00 - 24.02.2019 00:00:00 (CET)Aurillac, France (7549): Quantités de précipitations: 18.02.2019 00:00:00 - 24.02.2019 00:00:00 (CET)
Date & Time tt [°C] td [°C] tt 5cm [°C] tt -20cm [°C] tt -100cm [°C] ff [km/h] ff [knt] fx [km/h] fx [knt] dd ppp [hPa] vv [km] sd [min] rr [mm]
24.02.2019 00:00:00 7,2 1,5 4,9 6,8 7,4 12 6 16 9 ESE 1029,8 17 0 0,0
23.02.2019 23:00:00 7,0 1,3 5,4 6,8 7,4 11 6 15 8 SE 1029,4 16 0 0,0
23.02.2019 22:00:00 8,3 1,9 6,7 6,7 7,4 13 7 17 9 ESE 1028,8 20 0 0,0
23.02.2019 21:00:00 9,6 2,4 4,6 6,6 7,4 9 5 12 7 ESE 1028,2 41 0 0,0
23.02.2019 20:00:00 10,5 3,1 3,3 6,5 7,4 10 5 13 7 ESE 1027,7 52 0 0,0
23.02.2019 19:00:00 12,6 3,3 9,5 6,4 7,4 13 7 16 9 W 1026,4 15 6 0,0
23.02.2019 18:00:00 16,1 2,8 15,7 6,3 7,4 10 5 19 10 WNW 1025,3 15 60 0,0
23.02.2019 17:00:00 18,2 2,1 21,4 6,2 7,4 14 8 22 12 WNW 1024,4 14 60 0,0
23.02.2019 16:00:00 18,6 1,6 22,9 6,1 7,4 16 8 24 13 WNW 1024,4 12 60 0,0
23.02.2019 15:00:00 18,0 1,0 22,8 6,0 7,3 16 9 24 13 WNW 1024,7 16 60 0,0
23.02.2019 14:00:00 17,9 1,0 22,3 6,0 7,4 17 9 25 14 WNW 1025,2 9 60 0,0
23.02.2019 13:00:00 16,6 2,2 21,7 6,1 7,4 15 8 26 14 WNW 1025,8 11 60 0,0
23.02.2019 12:00:00 15,9 0,8 20,8 6,1 7,4 7 4 12 6 NW 1026,5 19 60 0,0
23.02.2019 11:00:00 13,7 2,3 15,5 6,1 7,3 5 3 11 6 ESE 1027,0 60 60 0,0
23.02.2019 10:00:00 9,3 2,2 9,1 6,2 7,3 8 5 13 7 E 1028,3 20 60 0,0
23.02.2019 09:00:00 4,6 1,1 -1,2 6,3 7,4 7 4 14 8 E 1030,2 19 43 0,0
23.02.2019 08:00:00 0,9 -0,7 -2,3 6,3 7,4 8 4 15 8 E 1031,1 18 0 0,0
23.02.2019 07:00:00 1,3 -0,5 -2,5 6,4 7,3 9 5 14 7 E 1030,8 34 0 0,0
23.02.2019 06:00:00 1,2 -0,7 -2,5 6,4 7,4 6 3 11 6 E 1031,2 20 0 0,0
23.02.2019 05:00:00 1,5 -0,7 -1,8 6,5 7,4 8 4 13 7 ESE 1030,9 20 0 0,0
23.02.2019 04:00:00 2,1 -0,8 -1,7 6,5 7,3 8 4 10 5 E 1031,0 43 0 0,0
23.02.2019 03:00:00 4,7 0,5 -1,4 6,5 7,3 4 2 9 5 ENE 1030,5 41 0 0,0
23.02.2019 02:00:00 3,7 -0,5 -0,6 6,5 7,3 6 3 10 5 E 1030,8 19 0 0,0
23.02.2019 01:00:00 6,5 0,2 0,9 6,5 7,3 2 1 10 6 S 1029,8 60 0 0,0
23.02.2019 00:00:00 6,9 0,3 2,6 6,5 7,3 5 3 11 6 WSW 1029,5 46 0 0,0
22.02.2019 23:00:00 7,3 0,3 2,4 6,5 7,3 4 2 19 11 WSW 1029,6 34 0 0,0
22.02.2019 22:00:00 12,2 0,3 2,1 6,4 7,3 13 7 23 12 N 1028,5 41 0 0,0
22.02.2019 21:00:00 7,6 -0,1 2,0 6,3 7,3 0 0 13 7 N 1030,6 18 0 0,0
22.02.2019 20:00:00 11,7 -0,8 4,8 6,2 7,3 6 3 13 7 NNE 1030,1 55 0 0,0
22.02.2019 19:00:00 12,7 -0,9 6,1 6,1 7,3 8 4 13 7 E 1029,7 59 5 0,0
22.02.2019 18:00:00 16,3 -3,8 15,4 6,0 7,3 6 3 20 11 NNE 1028,4 59 60 0,0
22.02.2019 17:00:00 17,5 -3,3 20,4 5,9 7,3 15 8 24 13 NNE 1028,1 51 60 0,0
22.02.2019 16:00:00 18,7 -0,7 22,7 5,8 7,3 14 7 23 12 ENE 1027,9 20 60 0,0
22.02.2019 15:00:00 18,9 -1,6 23,9 5,8 7,3 7 4 14 8 NNW 1027,9 19 60 0,0
22.02.2019 14:00:00 17,7 -0,1 23,1 5,8 7,3 7 4 15 8 WNW 1028,7 36 60 0,0
22.02.2019 13:00:00 16,1 -1,5 21,5 5,8 7,3 5 3 12 6 WSW 1029,5 20 60 0,0
22.02.2019 12:00:00 13,5 -2,1 17,8 5,8 7,3 3 2 11 6 E 1030,9 19 60 0,0
22.02.2019 11:00:00 9,3 -0,3 12,8 5,9 7,3 4 2 8 4 NW 1032,7 19 60 0,0
22.02.2019 10:00:00 5,0 -0,6 7,1 6,0 7,3 4 2 9 5 WNW 1033,8 18 60 0,0
22.02.2019 09:00:00 3,5 -2,3 -3,8 6,0 7,3 0 0 8 4 N 1034,1 18 40 0,0
22.02.2019 08:00:00 -0,9 -2,9 -6,3 6,1 7,3 7 4 10 5 E 1035,0 18 0 0,0
22.02.2019 07:00:00 -1,2 -3,6 -5,8 6,2 7,3 3 2 7 4 SSE 1035,1 20 0 0,0
22.02.2019 06:00:00 -0,5 -3,2 -5,2 6,2 7,3 5 3 7 4 E 1034,9 12 0 0,0
22.02.2019 05:00:00 -0,3 -3,2 -5,4 6,3 7,3 4 2 8 5 E 1034,6 19 0 0,0
22.02.2019 04:00:00 -0,3 -2,8 -5,0 6,4 7,3 3 2 12 7 E 1034,6 15 0 0,0
22.02.2019 03:00:00 1,5 -3,2 -4,4 6,4 7,3 4 2 8 4 E 1034,1 37 0 0,0
22.02.2019 02:00:00 0,7 -2,5 -3,6 6,4 7,3 6 3 7 4 E 1034,7 15 0 0,0
22.02.2019 01:00:00 1,7 -2,3 -3,4 6,4 7,3 5 3 7 4 E 1034,4 17 0 0,0
22.02.2019 00:00:00 2,6 -2,1 -2,1 6,4 7,3 3 2 8 4 ESE 1033,9 11 0 0,0
21.02.2019 23:00:00 4,1 -1,9 -0,2 6,4 7,3 5 3 11 6 E 1033,5 16 0 0,0
21.02.2019 22:00:00 5,7 -1,2 -0,2 6,3 7,3 6 4 14 8 ENE 1032,3 17 0 0,0
21.02.2019 21:00:00 8,0 -1,8 3,7 6,2 7,3 11 6 16 9 NE 1031,3 15 0 0,0
21.02.2019 20:00:00 9,8 -2,2 3,6 6,1 7,3 10 5 14 7 NE 1030,4 15 0 0,0
21.02.2019 19:00:00 12,3 -1,3 6,1 6,0 7,3 6 3 9 5 NNW 1029,1 19 3 0,0
21.02.2019 18:00:00 16,0 -4,6 14,4 5,9 7,3 5 3 10 5 NW 1027,4 20 60 0,0
21.02.2019 17:00:00 17,2 -6,0 20,8 5,8 7,3 8 4 13 7 WNW 1026,9 20 60 0,0
21.02.2019 16:00:00 17,2 -4,1 22,5 5,7 7,3 8 4 13 7 WNW 1026,8 19 60 0,0
21.02.2019 15:00:00 17,3 -2,4 22,8 5,7 7,3 7 4 17 9 NW 1026,8 20 60 0,0
21.02.2019 14:00:00 17,2 -4,7 24,1 5,6 7,2 6 3 11 6 WNW 1026,9 19 60 0,0
21.02.2019 13:00:00 17,1 -1,6 23,4 5,7 7,2 0 0 11 6 N 1027,0 19 60 0,0
21.02.2019 12:00:00 16,2 -0,5 19,5 5,7 7,3 4 2 8 5 WSW 1027,6 19 60 0,0
21.02.2019 11:00:00 11,9 -1,3 12,9 5,8 7,3 4 2 9 5 SE 1028,5 18 60 0,0
21.02.2019 10:00:00 7,2 -0,5 6,8 5,8 7,3 5 3 10 6 ESE 1029,8 18 60 0,0
21.02.2019 09:00:00 3,2 -1,4 -3,9 5,9 7,3 3 1 8 5 ESE 1030,7 19 38 0,0
21.02.2019 08:00:00 -0,5 -3,0 -5,2 6,0 7,3 6 3 9 5 ESE 1031,0 15 0 0,0
21.02.2019 07:00:00 -1,0 -3,2 -5,0 6,0 7,3 7 4 8 5 ESE 1030,8 19 0 0,0
21.02.2019 06:00:00 -0,5 -3,2 -5,3 6,1 7,2 4 2 9 5 E 1030,5 20 0 0,0
21.02.2019 05:00:00 -1,3 -3,3 -4,8 6,2 7,3 6 4 9 5 ENE 1030,7 20 0 0,0
21.02.2019 04:00:00 0,1 -2,1 -4,5 6,2 7,3 4 2 10 5 E 1030,2 20 0 0,0
21.02.2019 03:00:00 0,0 -2,9 -4,0 6,2 7,2 3 2 10 6 ESE 1030,4 19 0 0,0
21.02.2019 02:00:00 0,1 -2,4 -3,1 6,3 7,3 9 5 11 6 E 1029,9 19 0 0,0
21.02.2019 01:00:00 2,0 -1,8 -2,9 6,3 7,2 4 2 10 5 E 1029,5 9 0 0,0
21.02.2019 00:00:00 1,3 -1,9 -1,8 6,3 7,3 9 5 12 6 E 1029,0 18 0 0,0
20.02.2019 23:00:00 2,8 -1,6 -1,8 6,2 7,2 5 3 11 6 ESE 1028,4 17 0 0,0
20.02.2019 22:00:00 2,3 -2,2 -1,3 6,2 7,3 9 5 10 6 E 1028,1 20 0 0,0
20.02.2019 21:00:00 6,1 -1,8 0,8 6,1 7,2 7 4 14 7 ENE 1026,9 34 0 0,0
20.02.2019 20:00:00 7,7 -1,5 0,8 6,0 7,2 5 3 8 4 E 1025,8 18 0 0,0
20.02.2019 19:00:00 10,9 0,0 6,0 5,9 7,2 5 3 8 5 WSW 1024,3 16 2 0,0
20.02.2019 18:00:00 13,6 -4,6 11,9 5,8 7,2 5 3 6 3 SSE 1023,0 60 60 0,0
20.02.2019 17:00:00 15,2 -4,2 19,1 5,7 7,2 5 3 9 5 SE 1022,4 20 60 0,0
20.02.2019 16:00:00 15,4 -4,6 20,7 5,7 7,2 6 3 13 7 E 1022,3 60 60 0,0
20.02.2019 15:00:00 15,3 -6,3 20,9 5,6 7,2 6 3 15 8 SSE 1022,5 59 60 0,0
20.02.2019 14:00:00 14,4 -3,9 20,8 5,6 7,2 7 4 13 7 SE 1022,8 20 60 0,0
20.02.2019 13:00:00 13,4 1,1 19,8 5,6 7,2 4 2 12 6 SSW 1023,3 44 60 0,0
20.02.2019 12:00:00 11,6 2,1 17,2 5,7 7,2 5 3 11 6 ESE 1024,0 43 60 0,0
20.02.2019 11:00:00 9,6 3,6 10,9 5,7 7,2 4 2 8 4 SSW 1024,3 18 60 0,0
20.02.2019 10:00:00 5,2 0,9 1,9 5,8 7,2 3 1 9 5 ESE 1025,4 19 60 0,0
20.02.2019 09:00:00 0,5 -1,1 -4,9 5,9 7,2 8 4 10 5 E 1026,2 13 35 0,0
20.02.2019 08:00:00 -1,2 -2,2 -4,9 5,9 7,2 5 3 11 6 E 1026,2 12 0 0,0
20.02.2019 07:00:00 -0,6 -1,7 -4,0 6,0 7,2 11 6 12 6 E 1025,4 14 0 0,0
20.02.2019 06:00:00 -0,4 -1,4 -4,0 6,0 7,2 11 6 12 7 E 1025,3 12 0 0,0
20.02.2019 05:00:00 -0,3 -1,1 -4,2 6,1 7,2 9 5 10 6 E 1025,3 11 0 0,0
20.02.2019 04:00:00 -0,6 -1,7 -3,8 6,1 7,2 8 4 11 6 E 1025,5 10 0 0,0
20.02.2019 03:00:00 0,3 -0,7 -3,6 6,2 7,2 11 6 13 7 E 1025,4 12 0 0,0
20.02.2019 02:00:00 -0,2 -1,3 -3,8 6,2 7,2 8 4 10 5 E 1025,3 10 0 0,0
20.02.2019 01:00:00 0,5 -0,6 -3,8 6,2 7,2 5 3 9 5 ESE 1024,9 11 0 0,0
20.02.2019 00:00:00 1,5 -0,3 -1,7 6,2 7,2 7 4 9 5 E 1024,5 13 0 0,0
19.02.2019 23:00:00 2,2 0,3 -1,5 6,2 7,2 6 4 8 4 E 1024,3 14 0 0,0
19.02.2019 22:00:00 3,2 0,9 -1,1 6,2 7,2 6 3 8 5 E 1023,8 15 0 0,0
19.02.2019 21:00:00 5,0 1,5 -0,5 6,1 7,2 6 3 7 4 ENE 1023,0 19 0 0,0
19.02.2019 20:00:00 6,5 1,8 0,7 6,0 7,2 0 0 8 4 N 1022,6 28 0 0,0
19.02.2019 19:00:00 8,6 2,2 4,8 5,9 7,2 5 3 13 7 SSW 1021,4 27 0 0,0
19.02.2019 18:00:00 11,1 2,4 10,6 5,8 7,2 11 6 17 9 WSW 1020,0 50 60 0,0
19.02.2019 17:00:00 13,5 -0,2 17,7 5,7 7,2 3 2 13 7 S 1019,5 52 60 0,0
19.02.2019 16:00:00 13,6 0,9 19,4 5,6 7,2 7 4 14 8 SSW 1019,6 55 60 0,0
19.02.2019 15:00:00 13,7 1,3 19,1 5,6 7,2 4 2 14 8 ENE 1020,1 20 60 0,0
19.02.2019 14:00:00 12,0 1,9 18,7 5,6 7,2 5 3 14 8 NNE 1021,2 19 60 0,0
19.02.2019 13:00:00 11,3 2,1 17,5 5,6 7,2 5 3 14 8 SSW 1021,9 20 60 0,0
19.02.2019 12:00:00 10,0 2,3 14,7 5,7 7,2 7 4 17 9 ESE 1022,9 20 60 0,0
19.02.2019 11:00:00 8,9 2,5 11,9 5,7 7,2 8 5 16 9 SE 1023,3 38 60 0,0
19.02.2019 10:00:00 6,1 1,0 5,0 5,8 7,2 6 3 13 7 E 1023,9 20 60 0,0
19.02.2019 09:00:00 2,5 -1,1 -0,7 5,8 7,2 9 5 17 9 E 1024,7 37 37 0,0
19.02.2019 08:00:00 0,5 -2,1 -1,0 5,9 7,2 10 6 18 10 ESE 1024,6 47 0 0,0
19.02.2019 07:00:00 0,7 -2,2 -0,6 5,9 7,2 11 6 18 10 ESE 1024,2 54 0 0,0
19.02.2019 06:00:00 0,7 -1,9 -1,1 6,0 7,2 14 8 22 12 ESE 1024,0 47 0 0,0
19.02.2019 05:00:00 0,8 -1,6 -0,7 6,0 7,2 11 6 19 10 E 1023,9 45 0 0,0
19.02.2019 04:00:00 1,3 -0,9 -2,4 6,0 7,2 11 6 14 8 ESE 1023,9 20 0 0,0
19.02.2019 03:00:00 2,6 0,0 0,6 6,1 7,2 8 4 18 10 ESE 1023,4 31 0 0,0
19.02.2019 02:00:00 3,9 0,9 1,6 6,1 7,2 11 6 20 11 ESE 1023,0 31 0 0,0
19.02.2019 01:00:00 2,7 0,3 1,5 6,1 7,2 13 7 20 11 ESE 1023,4 30 0 0,0
19.02.2019 00:00:00 3,3 0,5 1,9 6,1 7,2 15 8 21 11 ESE 1023,2 15 0 0,0
18.02.2019 23:00:00 3,7 0,7 2,4 6,1 7,2 14 8 17 9 ESE 1023,3 44 0 0,0
18.02.2019 22:00:00 5,1 1,4 2,6 6,1 7,2 12 6 16 9 E 1022,9 39 0 0,0
18.02.2019 21:00:00 5,3 1,4 3,6 6,0 7,2 9 5 15 8 ESE 1022,5 48 0 0,0
18.02.2019 20:00:00 6,5 2,0 4,6 5,9 7,2 11 6 20 11 ESE 1022,0 10 0 0,0
18.02.2019 19:00:00 7,0 2,3 4,9 5,8 7,2 10 5 23 12 SE 1021,3 50 0 0,0
18.02.2019 18:00:00 9,2 2,5 8,5 5,7 7,2 13 7 30 16 SE 1020,2 57 60 0,0
18.02.2019 17:00:00 10,9 2,5 13,2 5,7 7,2 17 9 30 16 SSE 1019,7 60 60 -
18.02.2019 16:00:00 - - - - - - - - - - - - - -
18.02.2019 15:00:00 12,7 2,5 16,8 5,6 7,2 18 10 29 16 SSE 1019,4 60 60 0,0
18.02.2019 14:00:00 12,4 2,5 16,9 5,5 7,2 20 11 33 18 SSE 1020,1 20 60 0,0
18.02.2019 13:00:00 11,8 2,5 15,7 5,6 7,2 20 11 33 18 SE 1020,8 20 60 0,0
18.02.2019 12:00:00 11,2 2,0 13,5 5,6 7,2 18 10 36 20 SSE 1021,5 20 60 0,0
18.02.2019 11:00:00 9,8 2,4 11,5 5,6 7,2 25 14 45 24 SE 1021,7 20 60 0,0
18.02.2019 10:00:00 8,2 1,8 8,2 5,7 7,2 20 11 32 17 ESE 1021,9 60 60 0,0
18.02.2019 09:00:00 6,1 0,8 3,4 5,7 7,2 17 9 25 14 E 1022,6 57 32 0,0
18.02.2019 08:00:00 4,6 0,2 3,0 5,7 7,2 17 9 26 14 E 1022,5 60 0 0,0
18.02.2019 07:00:00 4,6 -0,2 2,9 5,8 7,2 15 8 27 14 E 1022,3 60 0 0,0
18.02.2019 06:00:00 4,5 -0,9 2,8 5,8 7,2 16 8 27 15 E 1022,3 60 0 0,0
18.02.2019 05:00:00 4,7 -0,5 3,2 5,9 7,2 17 9 29 16 ESE 1022,3 60 0 0,0
18.02.2019 04:00:00 5,1 -0,7 3,5 5,9 7,2 16 9 31 17 E 1022,5 60 0 0,0
18.02.2019 03:00:00 5,2 -1,5 2,9 5,9 7,2 13 7 23 12 ESE 1023,1 60 0 0,0
18.02.2019 02:00:00 5,4 -2,7 2,8 5,9 7,2 17 9 29 16 E 1022,9 60 0 0,0
18.02.2019 01:00:00 5,4 -2,9 2,9 5,9 7,2 12 7 24 13 E 1023,1 60 0 0,0
18.02.2019 00:00:00 6,2 -1,7 4,1 5,9 7,2 16 8 28 15 E 1023,1 60 0 0,0

tt = Température de l'air
td = dewpoint
tt 5cm = Température de l'air 5cm
tt -20cm = Température de l'air -20cm
tt -100cm = Température de l'air -100cm
ff = Vitesse du vent
fx = gusts
dd = Direction du vent
ppp = reduced air pressure
vv = visibility
sd = Ensoleillement
rr = Quantités de précipitations

stations d'obs. à proximité